Location: Kearney
(40.6990°N, 99.0810°W)
Time: 03:54:04
(UTC-06:00)

MTI - Pass Details

Date: 18 December 2017
Orbit: 414 x 423 km, 97.6° (Epoch: 18 January)

Event Time Altitude Azimuth Distance (km) Brightness Sun altitude
Exits shadow 18:44:26 21° 9° (N) 1,018 5.4 -17.0°
Maximum altitude 18:46:28 81° 283° (WNW) 436 3.8 -17.4°
Drops below altitude 10° 18:49:42 10° 196° (SSW) 1,510 7.0 -18.0°
Sets 18:51:41 0° 196° (SSW) 2,369 8.0 -18.4°
